User: anonymous   Login
Location: Unspecified
(0.0000°N, 0.0000°E)
Time: 08:51:11
(UTC+00:00)
Language:

STARLINK-5109 - Orbit

View from above orbital plane
View from above orbital plane
View from above satellite
View from above satellite

Ground track
Ground track

The orbit is defined by the following mean orbital elements,

1 54002U          26145.50667457 +.00000000 +00000-0 +59512-4 0 00008
2 54002  53.2130 219.0125 0001206  86.4240 273.6890 15.08840273    03
Epoch (UTC): 25 May 2026 12:09:36
Eccentricity: 0.0001206
inclination: 53.2130°
perigee height: 539 km
apogee height: 541 km
right ascension of ascending node: 219.0125°
argument of perigee: 86.4240°
revolutions per day: 15.08840273
mean anomaly at epoch: 273.6890°

The dashed part of the orbit path shows where the satellite is in the earth's shadow,  

DLR